Regional Weather Roundup
Issued by NWS

Home | Current Version | Previous Version | Text Only | Print | Product List | Glossary On
Versions: 1 2 3 4 5 6 7 8 9 10 11 12 13 14 15 16 17 18 19 20 21 22 23 24 25 26 27 28 29 30 31 32 33 34 35 36 37 38 39 40 41 42 43 44 45 46 47 48 49 50
000
ASUS45 KBOI 280610
RWRID
WEATHER ROUNDUP FOR IDAHO
NATIONAL WEATHER SERVICE BOISE ID
1100 PM MST THU NOV 27 2014

NOTE: "FAIR" INDICATES FEW OR NO CLOUDS BELOW 12000 FEET
WITH NO SIGNIFICANT WEATHER AND/OR OBSTRUCTIONS TO VISIBILITY

IDZ012-014-280700-
SOUTHWEST IDAHO


CITY           SKY/WX    TMP DP  RH WIND       PRES   REMARKS
BOISE          CLOUDY    43  41  93 S3        29.99F
CALDWELL       NOT AVBL
MOUNTAIN HOME  CLOUDY    44  44  99 E10       29.97F
$$

IDZ016-017-280700-
SOUTHCENTRAL IDAHO


CITY           SKY/WX    TMP DP  RH WIND       PRES   REMARKS
BURLEY         CLOUDY    52  27  38 SW15      30.02F
JEROME         CLOUDY    49  29  46 E5        30.02F
TWIN FALLS     CLOUDY    58  26  29 S15       30.01F
$$

IDZ019>023-280700-
SOUTHEAST IDAHO


CITY           SKY/WX    TMP DP  RH WIND       PRES   REMARKS
IDAHO FALLS    MOCLDY    41  31  67 SW6       30.05F
POCATELLO      CLEAR     53  23  31 S9        30.04F
REXBURG        CLOUDY    47  26  44 S10       30.04F
$$

IDZ006-010-011-018-031-032-280700-
CENTRAL IDAHO MOUNTAINS


CITY           SKY/WX    TMP DP  RH WIND       PRES   REMARKS
MCCALL         LGT RAIN  35  35 100 CALM      30.01F
HAILEY         CLOUDY    37  32  81 NW7       30.08S WCI  32
STANLEY          N/A     45  24  43 W8G21     30.06F
SALMON         CLOUDY    41  36  81 CALM      29.94F
CHALLIS        CLOUDY    38  32  79 N6        30.00S WCI  33
$$

IDZ002-004-006-007-026-280700-
NORTHERN IDAHO


CITY           SKY/WX    TMP DP  RH WIND       PRES   REMARKS
LEWISTON       CLOUDY    59  43  55 SW18G33   29.79F
LOWELL           N/A     42  41  96 CALM      29.90F
COEUR D`ALENE  CLOUDY    48  41  76 SW9G17    29.73F
MULLAN PASS    LGT RAIN  36  36 100 SW14G28   29.77F VSB 1   WCI  27
$$


USA.gov is the U.S. government's official web portal to all federal, state and local government web resources and services.